AUA974 BIKF-LOWW

Flight info

Callsign AUA974
Flight time N/A
Altitude 37000
Route OSKU3C OSKUM DCT VALDI/N0447F370 DCT RAMUD DCT RAXLU DCT OMELO DCT EVIKU DCT BITSI DCT MIKOV MIKO8W
Aircraft A21N/M-V/N

Departure

Time 2026-04-30 20:42
Airport Keflavik International Airport (BIKF)

Arrival

Time N/A
Airport Vienna International Airport (LOWW)
Time Latitude Longitude Altitude Speed Heading
2026-04-30 20:11 63.99287 -22.62308 167 ft 0 kts 359°
2026-04-30 20:31 63.99285 -22.62308 165 ft 3 kts 359°
2026-04-30 20:32 63.99229 -22.62307 164 ft 3 kts 359°
2026-04-30 20:32 63.99192 -22.62311 164 ft 3 kts 29°
2026-04-30 20:33 63.99180 -22.62338 164 ft 3 kts 71°
2026-04-30 20:33 63.99172 -22.62393 164 ft 0 kts 95°
2026-04-30 20:36 63.99171 -22.62313 164 ft 5 kts 89°
2026-04-30 20:37 63.99172 -22.62213 166 ft 7 kts 90°
2026-04-30 20:37 63.99172 -22.62080 166 ft 9 kts 90°
2026-04-30 20:37 63.99171 -22.61944 167 ft 7 kts 90°
2026-04-30 20:37 63.99170 -22.61821 167 ft 9 kts 90°
2026-04-30 20:38 63.99172 -22.61669 167 ft 10 kts 89°
2026-04-30 20:38 63.99172 -22.61551 168 ft 7 kts 90°
2026-04-30 20:38 63.99172 -22.61424 168 ft 9 kts 90°
2026-04-30 20:39 63.99172 -22.61089 170 ft 12 kts 90°
2026-04-30 20:39 63.99173 -22.60887 171 ft 10 kts 89°
2026-04-30 20:39 63.99173 -22.60786 171 ft 0 kts 90°
2026-04-30 20:41 63.99173 -22.60724 171 ft 4 kts 90°
2026-04-30 20:41 63.99173 -22.60680 171 ft 1 kts 90°
2026-04-30 20:41 63.99173 -22.60650 171 ft 3 kts 90°
2026-04-30 20:41 63.99169 -22.60596 172 ft 4 kts 109°
2026-04-30 20:42 63.99148 -22.60551 172 ft 5 kts 159°
2026-04-30 20:42 63.99073 -22.60543 170 ft 35 kts 179°
2026-04-30 20:42 63.97401 -22.60540 811 ft 165 kts 182°
2026-04-30 20:43 63.96204 -22.60557 1913 ft 176 kts 185°
2026-04-30 20:43 63.94902 -22.60041 2706 ft 211 kts 157°
2026-04-30 20:43 63.93837 -22.57495 3338 ft 240 kts 120°
2026-04-30 20:44 63.92582 -22.50057 5049 ft 260 kts 113°
2026-04-30 20:44 63.91937 -22.46092 5681 ft 276 kts 114°
2026-04-30 20:44 63.90588 -22.38280 6002 ft 283 kts 115°
2026-04-30 20:45 63.89095 -22.29953 6001 ft 284 kts 115°
2026-04-30 20:45 63.88348 -22.25819 6002 ft 283 kts 115°
2026-04-30 20:45 63.87599 -22.21704 6012 ft 282 kts 115°
2026-04-30 20:46 63.85355 -22.09473 6007 ft 281 kts 116°
2026-04-30 20:46 63.84603 -22.05386 6005 ft 282 kts 116°
2026-04-30 20:47 63.83486 -21.96875 6014 ft 285 kts 100°
2026-04-30 20:47 63.83235 -21.92414 6013 ft 286 kts 99°
2026-04-30 20:48 63.82766 -21.83480 6014 ft 285 kts 99°
2026-04-30 20:48 63.82524 -21.79019 6016 ft 286 kts 99°
2026-04-30 20:48 63.82275 -21.74543 6164 ft 289 kts 99°
2026-04-30 20:48 63.82021 -21.70035 6717 ft 292 kts 99°
2026-04-30 20:49 63.81764 -21.65504 6981 ft 290 kts 100°
2026-04-30 20:49 63.81505 -21.60968 7020 ft 291 kts 100°
2026-04-30 20:49 63.81244 -21.56429 6982 ft 292 kts 100°
2026-04-30 20:50 63.80715 -21.47327 6880 ft 291 kts 100°
2026-04-30 20:50 63.80448 -21.42770 7157 ft 295 kts 100°
2026-04-30 20:50 63.80172 -21.38115 8151 ft 301 kts 100°
2026-04-30 20:50 63.79893 -21.33410 9159 ft 303 kts 101°
2026-04-30 20:51 63.79610 -21.28683 9718 ft 311 kts 101°
2026-04-30 20:51 63.79016 -21.18836 9886 ft 340 kts 101°
2026-04-30 20:51 63.78689 -21.13493 9883 ft 334 kts 101°
2026-04-30 20:52 63.78376 -21.08300 9896 ft 349 kts 101°
2026-04-30 20:52 63.78035 -21.02832 9881 ft 340 kts 102°
2026-04-30 20:52 63.76914 -20.92146 10381 ft 376 kts 108°
2026-04-30 20:53 63.76225 -20.86317 11215 ft 391 kts 108°
2026-04-30 20:53 63.75512 -20.80296 12159 ft 403 kts 108°
2026-04-30 20:53 63.74789 -20.74180 13091 ft 414 kts 108°
2026-04-30 20:54 63.73260 -20.61314 14905 ft 432 kts 108°
2026-04-30 20:54 63.72472 -20.54710 15866 ft 438 kts 108°
2026-04-30 20:54 63.71676 -20.48021 16795 ft 444 kts 107°
2026-04-30 20:55 63.70624 -20.34002 18419 ft 461 kts 98°
2026-04-30 20:55 63.70294 -20.26766 19160 ft 467 kts 97°
2026-04-30 20:55 63.70008 -20.19503 19930 ft 472 kts 97°
2026-04-30 20:56 63.69419 -20.04589 21453 ft 481 kts 97°
2026-04-30 20:56 63.69096 -19.97027 22184 ft 486 kts 97°
2026-04-30 20:56 63.68394 -19.81689 23556 ft 496 kts 97°
2026-04-30 20:57 63.68024 -19.73942 24106 ft 500 kts 98°
2026-04-30 20:57 63.67649 -19.66239 24685 ft 503 kts 98°
2026-04-30 20:57 63.67265 -19.58412 25370 ft 503 kts 98°
2026-04-30 20:58 63.66476 -19.42660 26405 ft 509 kts 98°
2026-04-30 20:58 63.66074 -19.34732 27004 ft 509 kts 98°
2026-04-30 20:58 63.65669 -19.26789 27552 ft 512 kts 98°
2026-04-30 20:58 63.65258 -19.18829 28017 ft 515 kts 98°
2026-04-30 20:59 63.64411 -19.02733 29028 ft 518 kts 98°
2026-04-30 20:59 63.63983 -18.94718 29720 ft 515 kts 98°
2026-04-30 21:00 63.63119 -18.78796 30868 ft 510 kts 99°
2026-04-30 21:00 63.62245 -18.63038 31806 ft 509 kts 99°
2026-04-30 21:01 63.61354 -18.47310 32794 ft 506 kts 100°
2026-04-30 21:01 63.60903 -18.39470 33268 ft 505 kts 100°
2026-04-30 21:01 63.59992 -18.23853 34118 ft 503 kts 100°
2026-04-30 21:02 63.59531 -18.16069 34414 ft 504 kts 100°
2026-04-30 21:02 63.59064 -18.08245 34678 ft 505 kts 100°
2026-04-30 21:02 63.58591 -18.00403 34949 ft 506 kts 100°
2026-04-30 21:02 63.58119 -17.92648 35232 ft 507 kts 101°
2026-04-30 21:03 63.57637 -17.84802 35525 ft 507 kts 101°
2026-04-30 21:03 63.57152 -17.76976 35803 ft 508 kts 101°
2026-04-30 21:03 63.56661 -17.69110 36056 ft 509 kts 101°
2026-04-30 21:03 63.56164 -17.61243 36313 ft 510 kts 101°
2026-04-30 21:04 63.55662 -17.53357 36571 ft 510 kts 101°
2026-04-30 21:04 63.55155 -17.45469 36834 ft 511 kts 101°
2026-04-30 21:04 63.54302 -17.32342 36941 ft 512 kts 101°
2026-04-30 21:05 63.53259 -17.16544 36944 ft 512 kts 101°
2026-04-30 21:05 63.52199 -17.00765 36943 ft 512 kts 101°
2026-04-30 21:06 63.51123 -16.85019 36943 ft 511 kts 101°
2026-04-30 21:06 63.50030 -16.69293 36947 ft 511 kts 101°
2026-04-30 21:07 63.48925 -16.53655 36949 ft 511 kts 101°
2026-04-30 21:07 63.47797 -16.37938 36950 ft 511 kts 102°
2026-04-30 21:08 63.46652 -16.22255 36952 ft 511 kts 102°
2026-04-30 21:08 63.45492 -16.06590 36915 ft 511 kts 102°
2026-04-30 21:09 63.44313 -15.90926 36966 ft 511 kts 102°
2026-04-30 21:09 63.43122 -15.75339 36963 ft 511 kts 102°
2026-04-30 21:10 63.41908 -15.59689 36965 ft 511 kts 102°
2026-04-30 21:10 63.40678 -15.44063 36961 ft 511 kts 103°
2026-04-30 21:11 63.39431 -15.28456 36973 ft 511 kts 103°
2026-04-30 21:11 63.38167 -15.12862 36971 ft 511 kts 103°
2026-04-30 21:12 63.36886 -14.97278 36973 ft 511 kts 103°
2026-04-30 21:12 63.35589 -14.81721 36975 ft 510 kts 103°
2026-04-30 21:13 63.34274 -14.66168 36984 ft 510 kts 103°
2026-04-30 21:13 63.32945 -14.50652 36981 ft 510 kts 104°
2026-04-30 21:14 63.31607 -14.35252 36969 ft 510 kts 104°
2026-04-30 21:14 63.30246 -14.19782 36981 ft 509 kts 104°
2026-04-30 21:15 63.28866 -14.04321 36992 ft 509 kts 104°
2026-04-30 21:15 63.27471 -13.88876 37003 ft 509 kts 104°
2026-04-30 21:16 63.26058 -13.73447 36991 ft 509 kts 105°
2026-04-30 21:16 63.24638 -13.58126 37006 ft 509 kts 105°
2026-04-30 21:17 63.23195 -13.42750 36999 ft 509 kts 105°
2026-04-30 21:17 63.21734 -13.27379 37011 ft 509 kts 105°
2026-04-30 21:18 63.20255 -13.12016 37016 ft 509 kts 105°
2026-04-30 21:18 63.18771 -12.96774 37005 ft 509 kts 105°
2026-04-30 21:19 63.17265 -12.81496 37019 ft 508 kts 106°
2026-04-30 21:19 63.15743 -12.66235 37025 ft 507 kts 106°
2026-04-30 21:20 63.14211 -12.51051 37023 ft 506 kts 106°
2026-04-30 21:20 63.12660 -12.35865 37025 ft 506 kts 106°
2026-04-30 21:21 63.11095 -12.20714 37027 ft 506 kts 107°
2026-04-30 21:22 63.08804 -11.98840 37038 ft 504 kts 107°
2026-04-30 21:23 63.05599 -11.68808 37044 ft 503 kts 107°
2026-04-30 21:23 63.03152 -11.46322 37053 ft 503 kts 108°
2026-04-30 21:24 63.01501 -11.31356 37041 ft 502 kts 108°
2026-04-30 21:24 62.99839 -11.16438 37053 ft 501 kts 108°
2026-04-30 21:25 62.97324 -10.94167 37055 ft 498 kts 108°
2026-04-30 21:26 62.94791 -10.72086 37062 ft 498 kts 109°
2026-04-30 21:27 62.92217 -10.49990 37051 ft 498 kts 109°
2026-04-30 21:27 62.90484 -10.35289 37064 ft 497 kts 109°
2026-04-30 21:28 62.87854 -10.13272 37075 ft 497 kts 109°
2026-04-30 21:29 62.85202 -9.91391 37075 ft 497 kts 110°
2026-04-30 21:30 62.80694 -9.54899 37081 ft 497 kts 110°
2026-04-30 21:31 62.76105 -9.18623 37089 ft 495 kts 111°
2026-04-30 21:32 62.73308 -8.96928 37089 ft 495 kts 111°
2026-04-30 21:32 62.71427 -8.82496 37093 ft 495 kts 112°
2026-04-30 21:33 62.68589 -8.60974 37100 ft 494 kts 112°
2026-04-30 21:34 62.66671 -8.46596 37098 ft 494 kts 112°
2026-04-30 21:34 62.63769 -8.25079 37102 ft 494 kts 112°
2026-04-30 21:35 62.61816 -8.10754 37108 ft 494 kts 112°
2026-04-30 21:35 62.59931 -7.97050 37051 ft 494 kts 112°
2026-04-30 21:36 62.57954 -7.82794 37107 ft 491 kts 112°
2026-04-30 21:37 62.53980 -7.54511 37112 ft 491 kts 113°
2026-04-30 21:37 62.51967 -7.40374 37113 ft 491 kts 113°
2026-04-30 21:38 62.49946 -7.26279 37111 ft 488 kts 113°
2026-04-30 21:38 62.47919 -7.12268 37112 ft 487 kts 114°
2026-04-30 21:39 62.45878 -6.98287 37114 ft 487 kts 114°
2026-04-30 21:39 62.43840 -6.84437 37116 ft 487 kts 114°
2026-04-30 21:40 62.41770 -6.70479 37112 ft 487 kts 114°
2026-04-30 21:40 62.39692 -6.56581 37098 ft 487 kts 115°
2026-04-30 21:41 62.37599 -6.42694 37057 ft 486 kts 114°
2026-04-30 21:41 62.35500 -6.28869 37114 ft 484 kts 115°
2026-04-30 21:42 62.33406 -6.15193 37114 ft 483 kts 115°
2026-04-30 21:42 62.31290 -6.01489 37116 ft 483 kts 115°
2026-04-30 21:43 62.29154 -5.87757 37116 ft 483 kts 115°
2026-04-30 21:43 62.27008 -5.74065 37121 ft 484 kts 115°
2026-04-30 21:44 62.24854 -5.60435 37121 ft 485 kts 115°
2026-04-30 21:44 62.22674 -5.46737 37124 ft 485 kts 115°
2026-04-30 21:45 62.20480 -5.33053 37124 ft 485 kts 115°
2026-04-30 21:45 62.18272 -5.19390 37132 ft 485 kts 116°
2026-04-30 21:46 62.16054 -5.05760 37117 ft 485 kts 116°
2026-04-30 21:46 62.13824 -4.92163 37103 ft 484 kts 116°
2026-04-30 21:47 62.11603 -4.78708 37144 ft 481 kts 116°
2026-04-30 21:47 62.09363 -4.65244 37139 ft 481 kts 116°
2026-04-30 21:48 62.07108 -4.51804 37138 ft 480 kts 116°
2026-04-30 21:48 62.04841 -4.38389 37150 ft 480 kts 116°
2026-04-30 21:49 62.02579 -4.25090 37147 ft 480 kts 117°
2026-04-30 21:49 62.00294 -4.11751 37151 ft 479 kts 117°
2026-04-30 21:50 61.97997 -3.98439 37160 ft 479 kts 117°
2026-04-30 21:50 61.95687 -3.85150 37159 ft 479 kts 117°
2026-04-30 21:51 61.93365 -3.71882 37164 ft 479 kts 117°
2026-04-30 21:51 61.91031 -3.58637 37164 ft 479 kts 117°
2026-04-30 21:52 61.88684 -3.45412 37162 ft 478 kts 118°
2026-04-30 21:52 61.86331 -3.32244 37171 ft 477 kts 117°
2026-04-30 21:53 61.83974 -3.19140 37175 ft 476 kts 118°
2026-04-30 21:53 61.81622 -3.06158 37177 ft 476 kts 118°
2026-04-30 21:54 61.79240 -2.93101 37176 ft 476 kts 118°
2026-04-30 21:54 61.76846 -2.80064 37174 ft 476 kts 118°
2026-04-30 21:55 61.74438 -2.67038 37184 ft 476 kts 118°
2026-04-30 21:55 61.72020 -2.54043 37184 ft 476 kts 118°
2026-04-30 21:56 61.70002 -2.43259 37183 ft 476 kts 118°
2026-04-30 21:56 61.67161 -2.28182 37184 ft 476 kts 118°
2026-04-30 21:57 61.64710 -2.15266 37195 ft 475 kts 118°
2026-04-30 21:57 61.62660 -2.04531 37195 ft 475 kts 118°
2026-04-30 21:58 61.60185 -1.91643 37200 ft 475 kts 118°
2026-04-30 21:58 61.57784 -1.79224 37200 ft 474 kts 118°
2026-04-30 21:59 61.55292 -1.66416 37208 ft 474 kts 118°
2026-04-30 22:00 61.51521 -1.47185 37208 ft 474 kts 119°
2026-04-30 22:00 61.47731 -1.28042 37216 ft 474 kts 118°
2026-04-30 22:01 61.45193 -1.15320 37214 ft 474 kts 119°
2026-04-30 22:01 61.42658 -1.02697 37222 ft 474 kts 119°
2026-04-30 22:02 61.40096 -0.90014 37222 ft 474 kts 119°
2026-04-30 22:02 61.37519 -0.77341 37227 ft 474 kts 119°
2026-04-30 22:03 61.34936 -0.64716 37227 ft 474 kts 119°
2026-04-30 22:03 61.32338 -0.52093 37230 ft 473 kts 119°
2026-04-30 22:04 61.29757 -0.39626 37238 ft 471 kts 119°
2026-04-30 22:05 61.25843 -0.20874 37238 ft 471 kts 119°
2026-04-30 22:05 61.23219 -0.08394 37237 ft 471 kts 120°
2026-04-30 22:06 61.19884 0.03032 37244 ft 456 kts 136°
2026-04-30 22:06 61.13528 0.17500 37248 ft 453 kts 140°
2026-04-30 22:07 61.09147 0.26857 37247 ft 453 kts 140°
2026-04-30 22:07 61.04767 0.36213 37254 ft 453 kts 140°
2026-04-30 22:08 61.00396 0.45576 37260 ft 453 kts 140°
2026-04-30 22:08 60.96027 0.54928 37263 ft 453 kts 140°
2026-04-30 22:09 60.91672 0.64214 37272 ft 453 kts 140°
2026-04-30 22:09 60.87288 0.73518 37269 ft 454 kts 140°
2026-04-30 22:10 60.83021 0.82533 37281 ft 455 kts 140°
2026-04-30 22:10 60.78605 0.91826 37282 ft 455 kts 140°
2026-04-30 22:11 60.72000 1.05655 37282 ft 453 kts 140°
2026-04-30 22:12 60.67594 1.14833 37290 ft 452 kts 140°
2026-04-30 22:12 60.63186 1.23973 37289 ft 452 kts 141°
2026-04-30 22:13 60.58768 1.33094 37292 ft 452 kts 141°
2026-04-30 22:13 60.54351 1.42177 37300 ft 451 kts 141°
2026-04-30 22:14 60.49930 1.51234 37306 ft 451 kts 141°
2026-04-30 22:14 60.45497 1.60278 37309 ft 451 kts 141°
2026-04-30 22:15 60.41106 1.69199 37311 ft 448 kts 141°
2026-04-30 22:15 60.36697 1.78119 37314 ft 448 kts 141°
2026-04-30 22:16 60.32287 1.87003 37314 ft 447 kts 141°
2026-04-30 22:17 60.23450 2.04700 37321 ft 449 kts 141°
2026-04-30 22:17 60.16804 2.17914 37330 ft 450 kts 141°
2026-04-30 22:18 60.10093 2.31181 37333 ft 452 kts 141°
2026-04-30 22:19 60.03352 2.44427 37344 ft 452 kts 141°
2026-04-30 22:20 59.96627 2.57562 37344 ft 452 kts 141°
2026-04-30 22:20 59.89850 2.70719 37352 ft 453 kts 141°
2026-04-30 22:21 59.85317 2.79474 37322 ft 454 kts 140°
2026-04-30 22:21 59.80783 2.88199 37352 ft 453 kts 140°
2026-04-30 22:22 59.76251 2.96884 37357 ft 453 kts 140°
2026-04-30 22:22 59.71737 3.05498 37357 ft 452 kts 141°
2026-04-30 22:23 59.67195 3.14133 37365 ft 452 kts 141°
2026-04-30 22:23 59.62646 3.22747 37365 ft 452 kts 141°
2026-04-30 22:24 59.58091 3.31338 37366 ft 454 kts 141°
2026-04-30 22:24 59.53505 3.39950 37370 ft 456 kts 140°
2026-04-30 22:25 59.48906 3.48555 37372 ft 457 kts 140°
2026-04-30 22:25 59.44318 3.57110 37375 ft 457 kts 140°
2026-04-30 22:26 59.37394 3.69954 37382 ft 457 kts 141°
2026-04-30 22:27 59.32767 3.78494 37380 ft 457 kts 141°
2026-04-30 22:27 59.25816 3.91261 37375 ft 457 kts 140°
2026-04-30 22:28 59.18849 4.03982 37397 ft 456 kts 140°
2026-04-30 22:29 59.09553 4.20840 37394 ft 456 kts 140°
2026-04-30 22:31 58.93255 4.50079 37397 ft 457 kts 140°
2026-04-30 22:32 58.81541 4.70857 37412 ft 458 kts 140°
2026-04-30 22:33 58.69766 4.91544 37414 ft 458 kts 140°
2026-04-30 22:35 58.57945 5.12110 37420 ft 459 kts 140°
2026-04-30 22:36 58.46095 5.32533 37426 ft 459 kts 140°
2026-04-30 22:37 58.36580 5.48793 37430 ft 459 kts 140°
2026-04-30 22:38 58.27056 5.64945 37428 ft 458 kts 140°
2026-04-30 22:39 58.19921 5.76969 37430 ft 458 kts 140°
2026-04-30 22:40 58.05570 6.00946 37418 ft 458 kts 140°
2026-04-30 22:41 57.93617 6.20713 37430 ft 457 kts 140°
2026-04-30 22:43 57.79262 6.44215 37431 ft 457 kts 140°
2026-04-30 22:44 57.69650 6.59807 37431 ft 456 kts 140°
2026-04-30 22:45 57.55208 6.83024 37428 ft 457 kts 140°
2026-04-30 22:47 57.40717 7.06067 37433 ft 457 kts 140°
2026-04-30 22:48 57.31846 7.20052 37440 ft 457 kts 140°
2026-04-30 22:49 57.17274 7.42824 37438 ft 458 kts 140°
2026-04-30 22:51 57.02413 7.64764 37441 ft 457 kts 146°
2026-04-30 22:52 56.94463 7.74504 37444 ft 458 kts 146°
2026-04-30 22:53 56.83848 7.87317 37449 ft 458 kts 146°
2026-04-30 22:53 56.75872 7.96923 37452 ft 458 kts 146°
2026-04-30 22:55 56.62600 8.12803 37453 ft 458 kts 146°
2026-04-30 22:56 56.51923 8.25478 37454 ft 459 kts 146°
2026-04-30 22:57 56.38584 8.41193 37455 ft 459 kts 146°
2026-04-30 22:58 56.27868 8.53721 37454 ft 459 kts 146°
2026-04-30 22:59 56.11758 8.72397 37461 ft 460 kts 147°